LCS 1

Last updated on Wed Aug 19 2026 00:03:44 GMT+0000 (Coordinated Universal Time)

1 01361U 65034C 26230.57597056 .00000005 00000+0 -44838-3 0 9991 2 01361 32.1454 28.8885 0011884 342.4636 17.5450 9.89310661216061
UTC large
Height (km)
Speed (km/s)
/
Latitude / Longitude
Inclination (degrees)
Orbital Period (minutes)
Azimuth
Elevation
Range (km)
Doppler Factor

Next 0 passes for location: London (51.5072 / 0.1276)

No passes found over London.
LCS 1